User: anonymous   Login
Location: Unspecified
(0.0000°N, 0.0000°E)
Time: 06:52:51
(UTC+00:00)
Language:

STARLINK-5864 - Orbit

View from above orbital plane
View from above orbital plane
View from above satellite
View from above satellite

Ground track
Ground track

The orbit is defined by the following mean orbital elements,

1 55940U          26145.55248016 +.00000000 +00000-0 +14164-4 0 00005
2 55940  70.0000  90.6557 0002964 269.8558  90.2261 14.98331694    06
Epoch (UTC): 25 May 2026 13:15:34
Eccentricity: 0.0002964
inclination: 70.0000°
perigee height: 570 km
apogee height: 574 km
right ascension of ascending node: 90.6557°
argument of perigee: 269.8558°
revolutions per day: 14.98331694
mean anomaly at epoch: 90.2261°

The dashed part of the orbit path shows where the satellite is in the earth's shadow,  

DLR